AAN112 LEIB-LEVC

Flight info

Callsign AAN112
Flight time 0h 28m
Altitude 15000
Route XOSTA M134 NINOT
Aircraft B77W/H-SDE1E2E3FGHIJ2J3J4J5M1RWXY/LB1D1

Departure

Time 2026-05-06 08:04
Airport Ibiza Airport (LEIB)

Arrival

Time 2026-05-06 08:32
Airport Valencia Airport (LEVC)
Time Latitude Longitude Altitude Speed Heading
2026-05-06 07:54 38.87589 1.37003 36 ft 0 kts 333°
2026-05-06 07:56 38.87575 1.37011 34 ft 3 kts 333°
2026-05-06 07:56 38.87559 1.37022 33 ft 3 kts 333°
2026-05-06 07:57 38.87543 1.37032 31 ft 3 kts 333°
2026-05-06 07:57 38.87527 1.37043 34 ft 3 kts 333°
2026-05-06 07:57 38.87513 1.37051 33 ft 0 kts 333°
2026-05-06 07:58 38.87516 1.37049 33 ft 1 kts 330°
2026-05-06 07:58 38.87527 1.37028 33 ft 2 kts 290°
2026-05-06 07:58 38.87525 1.37009 34 ft 4 kts 260°
2026-05-06 07:59 38.87510 1.36962 35 ft 6 kts 244°
2026-05-06 07:59 38.87494 1.36922 36 ft 4 kts 243°
2026-05-06 07:59 38.87473 1.36883 35 ft 8 kts 226°
2026-05-06 07:59 38.87402 1.36853 36 ft 12 kts 182°
2026-05-06 08:00 38.87325 1.36848 36 ft 11 kts 187°
2026-05-06 08:00 38.87247 1.36767 36 ft 14 kts 242°
2026-05-06 08:00 38.87204 1.36661 36 ft 12 kts 242°
2026-05-06 08:00 38.87160 1.36555 36 ft 15 kts 242°
2026-05-06 08:01 38.87113 1.36440 36 ft 14 kts 242°
2026-05-06 08:01 38.87020 1.36213 35 ft 36 kts 242°
2026-05-06 08:01 38.86907 1.35942 35 ft 33 kts 242°
2026-05-06 08:01 38.86819 1.35829 35 ft 10 kts 176°
2026-05-06 08:02 38.86799 1.35839 35 ft 0 kts 152°
2026-05-06 08:02 38.86773 1.35860 35 ft 14 kts 147°
2026-05-06 08:03 38.86741 1.35975 36 ft 14 kts 72°
2026-05-06 08:03 38.86909 1.36398 35 ft 96 kts 61°
2026-05-06 08:03 38.87360 1.37470 37 ft 176 kts 62°
2026-05-06 08:03 38.88026 1.39161 316 ft 239 kts 62°
2026-05-06 08:04 38.88779 1.41076 1818 ft 238 kts 63°
2026-05-06 08:04 38.89317 1.43218 2078 ft 264 kts 79°
2026-05-06 08:04 38.89568 1.45515 2212 ft 252 kts 82°
2026-05-06 08:04 38.89783 1.47749 2586 ft 254 kts 80°
2026-05-06 08:05 38.90125 1.49971 2911 ft 255 kts 77°
2026-05-06 08:05 38.90696 1.52120 3190 ft 255 kts 59°
2026-05-06 08:05 38.91689 1.54016 3559 ft 259 kts 53°
2026-05-06 08:05 38.92800 1.55831 4114 ft 260 kts 51°
2026-05-06 08:06 38.93980 1.57630 4712 ft 266 kts 49°
2026-05-06 08:06 38.95262 1.59365 5292 ft 270 kts 42°
2026-05-06 08:06 38.96684 1.60965 5863 ft 274 kts 41°
2026-05-06 08:06 38.98152 1.62588 6169 ft 281 kts 37°
2026-05-06 08:07 38.99846 1.63832 6301 ft 281 kts 24°
2026-05-06 08:07 39.01671 1.64727 6357 ft 281 kts 18°
2026-05-06 08:07 39.03536 1.65445 6455 ft 275 kts 14°
2026-05-06 08:07 39.05400 1.65978 6923 ft 278 kts
2026-05-06 08:08 39.07341 1.66013 7372 ft 280 kts 345°
2026-05-06 08:08 39.09084 1.64969 7861 ft 278 kts 317°
2026-05-06 08:08 39.10439 1.63214 8387 ft 278 kts 309°
2026-05-06 08:08 39.11683 1.61303 8847 ft 278 kts 306°
2026-05-06 08:09 39.12877 1.59333 9330 ft 279 kts 304°
2026-05-06 08:09 39.13951 1.57248 9811 ft 280 kts 298°
2026-05-06 08:09 39.14925 1.55068 10251 ft 282 kts 297°
2026-05-06 08:09 39.15900 1.52915 10673 ft 282 kts 298°
2026-05-06 08:10 39.16910 1.50748 11120 ft 282 kts 298°
2026-05-06 08:10 39.17888 1.48551 11549 ft 282 kts 289°
2026-05-06 08:10 39.18314 1.46120 12031 ft 279 kts 274°
2026-05-06 08:10 39.18461 1.43620 12525 ft 281 kts 270°
2026-05-06 08:11 39.18502 1.41106 12998 ft 280 kts 269°
2026-05-06 08:11 39.18500 1.38573 12977 ft 291 kts 268°
2026-05-06 08:11 39.18472 1.35938 12496 ft 296 kts 267°
2026-05-06 08:11 39.18422 1.33290 12215 ft 293 kts 265°
2026-05-06 08:12 39.18239 1.30704 12091 ft 287 kts 262°
2026-05-06 08:12 39.18000 1.28189 12038 ft 279 kts 262°
2026-05-06 08:12 39.17778 1.25716 12019 ft 277 kts 263°
2026-05-06 08:12 39.17574 1.23248 12021 ft 277 kts 263°
2026-05-06 08:13 39.17369 1.20772 12025 ft 278 kts 263°
2026-05-06 08:13 39.17158 1.18289 12020 ft 278 kts 262°
2026-05-06 08:13 39.16944 1.15811 12020 ft 278 kts 263°
2026-05-06 08:13 39.16731 1.13340 12017 ft 277 kts 263°
2026-05-06 08:14 39.16521 1.10867 11987 ft 279 kts 263°
2026-05-06 08:14 39.16302 1.08336 11521 ft 287 kts 263°
2026-05-06 08:14 39.16083 1.05789 11088 ft 292 kts 263°
2026-05-06 08:14 39.15870 1.03330 10683 ft 295 kts 263°
2026-05-06 08:15 39.15640 1.00681 10254 ft 299 kts 263°
2026-05-06 08:15 39.15409 0.98001 9826 ft 303 kts 263°
2026-05-06 08:15 39.15171 0.95294 9380 ft 305 kts 263°
2026-05-06 08:15 39.14938 0.92621 9131 ft 287 kts 263°
2026-05-06 08:16 39.14719 0.90109 9059 ft 279 kts 263°
2026-05-06 08:16 39.14502 0.87662 9030 ft 273 kts 262°
2026-05-06 08:16 39.14290 0.85246 9017 ft 270 kts 262°
2026-05-06 08:16 39.14077 0.82835 9025 ft 271 kts 263°
2026-05-06 08:17 39.13863 0.80416 9032 ft 272 kts 263°
2026-05-06 08:17 39.13658 0.77994 9029 ft 272 kts 266°
2026-05-06 08:17 39.13807 0.75564 9031 ft 273 kts 278°
2026-05-06 08:17 39.14171 0.73154 9028 ft 275 kts 281°
2026-05-06 08:18 39.14605 0.70748 8905 ft 279 kts 282°
2026-05-06 08:18 39.15082 0.68324 8672 ft 277 kts 284°
2026-05-06 08:18 39.15676 0.65990 8575 ft 271 kts 289°
2026-05-06 08:18 39.16366 0.63733 8549 ft 272 kts 290°
2026-05-06 08:19 39.17052 0.61453 8542 ft 274 kts 289°
2026-05-06 08:19 39.17726 0.59152 8534 ft 275 kts 289°
2026-05-06 08:19 39.18393 0.56845 8516 ft 275 kts 289°
2026-05-06 08:19 39.19067 0.54540 8509 ft 275 kts 289°
2026-05-06 08:20 39.19744 0.52238 8504 ft 275 kts 289°
2026-05-06 08:20 39.20418 0.49933 8504 ft 274 kts 289°
2026-05-06 08:20 39.21088 0.47630 8509 ft 274 kts 289°
2026-05-06 08:20 39.21759 0.45327 8511 ft 275 kts 289°
2026-05-06 08:21 39.22432 0.43018 8507 ft 275 kts 289°
2026-05-06 08:21 39.23104 0.40712 8498 ft 274 kts 289°
2026-05-06 08:21 39.23783 0.38365 8061 ft 283 kts 289°
2026-05-06 08:21 39.24483 0.35960 7623 ft 289 kts 289°
2026-05-06 08:22 39.25184 0.33548 7186 ft 294 kts 289°
2026-05-06 08:22 39.25902 0.31073 6867 ft 294 kts 289°
2026-05-06 08:22 39.26613 0.28627 6763 ft 285 kts 290°
2026-05-06 08:22 39.27291 0.26285 6895 ft 275 kts 289°
2026-05-06 08:23 39.27954 0.23984 6935 ft 273 kts 289°
2026-05-06 08:23 39.28615 0.21694 6970 ft 272 kts 289°
2026-05-06 08:23 39.29276 0.19407 6978 ft 272 kts 289°
2026-05-06 08:23 39.29935 0.17122 6996 ft 271 kts 289°
2026-05-06 08:24 39.30592 0.14844 7000 ft 271 kts 289°
2026-05-06 08:24 39.31249 0.12562 6998 ft 271 kts 289°
2026-05-06 08:24 39.31905 0.10283 7003 ft 271 kts 289°
2026-05-06 08:24 39.32560 0.08005 6998 ft 271 kts 289°
2026-05-06 08:25 39.33213 0.05727 7004 ft 271 kts 289°
2026-05-06 08:25 39.33868 0.03446 7007 ft 271 kts 289°
2026-05-06 08:25 39.34530 0.01133 6730 ft 275 kts 289°
2026-05-06 08:25 39.35189 -0.01164 6601 ft 270 kts 289°
2026-05-06 08:26 39.35834 -0.03415 6528 ft 266 kts 290°
2026-05-06 08:26 39.36486 -0.05700 6190 ft 276 kts 290°
2026-05-06 08:26 39.37157 -0.08052 5807 ft 280 kts 290°
2026-05-06 08:26 39.37829 -0.10398 5636 ft 276 kts 290°
2026-05-06 08:27 39.38485 -0.12698 5557 ft 269 kts 290°
2026-05-06 08:27 39.39110 -0.14933 5493 ft 261 kts 288°
2026-05-06 08:27 39.39702 -0.17112 5396 ft 252 kts 290°
2026-05-06 08:27 39.40331 -0.19196 5291 ft 246 kts 291°
2026-05-06 08:28 39.40959 -0.21233 5187 ft 241 kts 291°
2026-05-06 08:28 39.41549 -0.23194 5055 ft 224 kts 291°
2026-05-06 08:28 39.42113 -0.25105 4820 ft 226 kts 291°
2026-05-06 08:28 39.42653 -0.26932 4663 ft 204 kts 291°
2026-05-06 08:29 39.43137 -0.28565 4296 ft 193 kts 291°
2026-05-06 08:29 39.43616 -0.30166 3997 ft 193 kts 291°
2026-05-06 08:29 39.44096 -0.31784 3722 ft 192 kts 291°
2026-05-06 08:29 39.44576 -0.33400 3515 ft 192 kts 291°
2026-05-06 08:30 39.45054 -0.35009 3248 ft 191 kts 292°
2026-05-06 08:30 39.45525 -0.36624 2928 ft 193 kts 291°
2026-05-06 08:30 39.45936 -0.38255 2654 ft 187 kts 284°
2026-05-06 08:30 39.46205 -0.39851 2263 ft 176 kts 284°
2026-05-06 08:31 39.46616 -0.41251 1982 ft 159 kts 289°
2026-05-06 08:31 39.46971 -0.42577 1473 ft 157 kts 293°
2026-05-06 08:31 39.47365 -0.43908 1016 ft 156 kts 292°
2026-05-06 08:31 39.47797 -0.45159 718 ft 149 kts 295°
2026-05-06 08:32 39.48233 -0.46321 377 ft 140 kts 297°
2026-05-06 08:32 39.48647 -0.47396 209 ft 98 kts 296°
2026-05-06 08:32 39.48815 -0.47862 220 ft 38 kts 295°
2026-05-06 08:32 39.48884 -0.48049 224 ft 19 kts 296°
2026-05-06 08:33 39.48951 -0.48126 223 ft 5 kts
2026-05-06 08:33 39.48975 -0.48104 222 ft 5 kts 54°
2026-05-06 08:33 39.48995 -0.48018 223 ft 2 kts 76°
2026-05-06 08:34 39.49011 -0.47935 219 ft 18 kts 76°
2026-05-06 08:34 39.49024 -0.47564 216 ft 22 kts 110°
2026-05-06 08:34 39.48971 -0.47430 219 ft 3 kts 110°
2026-05-06 08:35 39.48970 -0.47391 214 ft 4 kts 81°
2026-05-06 08:35 39.48986 -0.47355 215 ft 5 kts 49°
2026-05-06 08:35 39.49004 -0.47340 213 ft 3 kts 24°
2026-05-06 08:35 39.49016 -0.47337 214 ft 4 kts
2026-05-06 08:36 39.49023 -0.47337 212 ft 0 kts